Bradshaw AFB, HI

5:37 PM HST on October 23, 2019 (GMT -1000)
Bradshaw Army Air Field

Weather History for PHSF - August, 2019

Change the Weather History Date:

Saturday, August 24, 2019

  Actual Average Record
Temperature  
Mean Temperature 66 °F -  
Max Temperature 82 °F 71 °F 82 °F (2019)
Min Temperature 50 °F 50 °F 41 °F (1997)
Cooling Degree Days 1    
Growing Degree Days 16 (Base 50)    
Moisture  
Dew Point 40 °F    
Average Humidity 53    
Maximum Humidity 79    
Minimum Humidity 19    
Precipitation  
Precipitation 0.00 in - - ()
Sea Level Pressure  
Sea Level Pressure 29.93 in    
Wind  
Wind Speed 5 mph (SSE)    
Max Wind Speed 18 mph    
Max Gust Speed 28 mph    
Visibility 5 miles    
Events      
Averages and records for this station are not official NWS values.
T = Trace of Precipitation, MM = Missing Value Source: NWS Daily Summary

Daily Weather History Graph

Daily Weather History Graph

Search for Another Location

Airport or City:

Astronomy

Aug. 24, 2019 Rise Set
Actual Time 6:04 AM HST 6:43 PM HST
Civil Twilight 5:42 AM HST 7:06 PM HST
Nautical Twilight 5:15 AM HST 7:32 PM HST
Astronomical Twilight 4:49 AM HST 7:59 PM HST
Moon 12:22 AM HST 1:49 PM HST
Length of Visible Light 13h 24m
Length of Day
12h 38m
Last Quarter, 37% of the Moon is Illuminated
Aug 24
Last Quarter
Aug 30
New
Sep 5
First Quarter
Sep 13
Full
Sep 21
Last Quarter

Hourly Weather History & Observations

Time (HST) Temp. Dew Point Humidity Pressure Visibility Wind Dir Wind Speed Gust Speed Precip Events Conditions
12:01 AM 55.4 °F 41.0 °F 58% 29.93 in 2.5 mi SE 4.6 mph - N/A   Haze
12:06 AM 55.4 °F 41.0 °F 58% 29.93 in 6.0 mi SE 3.5 mph - N/A   Haze
12:16 AM 55.4 °F 41.0 °F 58% 29.93 in 0.9 mi SE 3.5 mph - N/A   Haze
12:26 AM 55.4 °F 41.0 °F 58% 29.91 in 1.8 mi SE 3.5 mph - N/A   Haze
12:31 AM 57.2 °F 41.0 °F 55% 29.91 in 3.0 mi West 4.6 mph - N/A   Haze
12:41 AM 57.2 °F 41.0 °F 55% 29.93 in 2.0 mi Calm Calm - N/A   Haze
12:46 AM 55.4 °F 41.0 °F 58% 29.93 in 0.4 mi SE 4.6 mph - N/A   Haze
12:56 AM 54.1 °F 39.7 °F 58% 29.94 in 0.2 mi SE 4.6 mph - N/A   Haze
1:36 AM 51.8 °F 37.4 °F 58% 29.92 in 10.0 mi SE 3.5 mph - N/A   Clear
1:56 AM 51.6 °F 39.0 °F 62% 29.92 in 10.0 mi SE 3.5 mph - N/A   Clear
2:56 AM 50.9 °F 37.2 °F 59% 29.91 in 10.0 mi SE 4.6 mph - N/A   Clear
3:51 AM 53.6 °F 37.4 °F 54% 29.91 in 1.8 mi ESE 4.6 mph - N/A   Haze
3:56 AM 52.2 °F 37.4 °F 57% 29.92 in 1.1 mi Calm Calm - N/A   Haze
4:01 AM 51.8 °F 37.4 °F 58% 29.92 in 1.4 mi Calm Calm - N/A   Haze
4:06 AM 51.8 °F 37.4 °F 58% 29.92 in 3.0 mi SE 3.5 mph - N/A   Haze
4:21 AM 51.8 °F 37.4 °F 58% 29.90 in 2.8 mi SSE 3.5 mph - N/A   Haze
4:26 AM 51.8 °F 37.4 °F 58% 29.91 in 0.5 mi SSE 4.6 mph - N/A   Haze
4:36 AM 51.8 °F 37.4 °F 58% 29.91 in 1.0 mi SE 4.6 mph - N/A   Haze
4:41 AM 51.8 °F 37.4 °F 58% 29.91 in 1.4 mi SE 3.5 mph - N/A   Haze
4:46 AM 51.8 °F 35.6 °F 54% 29.91 in 3.0 mi SE 3.5 mph - N/A   Haze
4:56 AM 51.1 °F 36.5 °F 57% 29.92 in 4.0 mi East 3.5 mph - N/A   Haze
5:01 AM 51.8 °F 37.4 °F 58% 29.92 in 0.8 mi SE 3.5 mph - N/A   Haze
5:06 AM 50.0 °F 37.4 °F 62% 29.94 in 1.2 mi SE 3.5 mph - N/A   Haze
5:11 AM 50.0 °F 37.4 °F 62% 29.94 in 2.0 mi ESE 4.6 mph - N/A   Haze
5:16 AM 50.0 °F 35.6 °F 58% 29.94 in 1.1 mi SE 3.5 mph - N/A   Haze
5:21 AM 50.0 °F 37.4 °F 62% 29.94 in 0.9 mi SE 4.6 mph - N/A   Haze
5:36 AM 51.8 °F 37.4 °F 58% 29.95 in 2.0 mi SE 3.5 mph - N/A   Haze
5:41 AM 51.8 °F 35.6 °F 54% 29.95 in 10.0 mi North 4.6 mph - N/A   Clear
5:51 AM 53.6 °F 35.6 °F 51% 29.94 in 0.4 mi SE 6.9 mph - N/A   Haze
5:56 AM 54.1 °F 36.7 °F 52% 29.95 in 0.4 mi SE 4.6 mph - N/A   Haze
6:01 AM 53.6 °F 35.6 °F 51% 29.95 in 1.1 mi Calm Calm - N/A   Haze
6:06 AM 51.8 °F 35.6 °F 54% 29.95 in 4.0 mi Calm Calm - N/A   Haze
6:11 AM 51.8 °F 35.6 °F 54% 29.94 in 1.4 mi SE 4.6 mph - N/A   Haze
6:16 AM 53.6 °F 35.6 °F 51% 29.94 in 1.0 mi SE 4.6 mph - N/A   Haze
6:21 AM 53.6 °F 35.6 °F 51% 29.94 in 0.4 mi SE 4.6 mph - N/A   Haze
6:31 AM 53.6 °F 35.6 °F 51% 29.94 in 1.4 mi SE 4.6 mph - N/A   Haze
6:41 AM 51.8 °F 35.6 °F 54% 29.96 in 2.2 mi SE 3.5 mph - N/A   Haze
6:56 AM 57.9 °F 35.8 °F 44% 29.94 in 6.0 mi SE 4.6 mph - N/A   Haze
7:56 AM 71.2 °F 36.1 °F 28% 29.93 in 10.0 mi SSE 5.8 mph - N/A   Clear
8:56 AM 75.9 °F 31.5 °F 20% 29.92 in 10.0 mi South 17.3 mph 27.6 mph N/A   Clear
9:56 AM 78.3 °F 35.4 °F 21% 29.91 in 10.0 mi South 18.4 mph 25.3 mph N/A   Clear
10:56 AM 81.1 °F 37.0 °F 21% 29.89 in 10.0 mi South 18.4 mph 24.2 mph N/A   Clear
11:56 AM 82.4 °F 36.1 °F 19% 29.89 in 10.0 mi South 18.4 mph 25.3 mph N/A   Clear
12:56 PM 82.4 °F 36.0 °F 19% 29.89 in 10.0 mi SSW 15.0 mph 24.2 mph N/A   Clear
1:56 PM 77.0 °F 56.1 °F 48% 29.93 in 10.0 mi WSW 8.1 mph - N/A   Clear
2:56 PM 74.5 °F 58.1 °F 57% 29.92 in 10.0 mi WSW 8.1 mph - N/A   Clear
3:56 PM 78.1 °F 40.5 °F 26% 29.89 in 10.0 mi SSW 9.2 mph - N/A   Clear
4:56 PM 74.5 °F 50.9 °F 43% 29.91 in 10.0 mi SSW 11.5 mph 18.4 mph N/A   Clear
5:56 PM 69.8 °F 52.3 °F 54% 29.91 in 10.0 mi South 12.7 mph 21.9 mph N/A   Clear
6:56 PM 63.5 °F 51.6 °F 65% 29.96 in 10.0 mi SSE 3.5 mph - N/A   Clear
7:56 PM 62.1 °F 51.1 °F 67% 29.93 in 10.0 mi South 8.1 mph - N/A   Partly Cloudy
8:56 PM 59.5 °F 52.9 °F 79% 29.95 in 10.0 mi South 11.5 mph - N/A   Clear
9:56 PM 58.5 °F 51.8 °F 79% 29.96 in 10.0 mi South 11.5 mph - N/A   Clear
10:56 PM 57.6 °F 50.4 °F 77% 29.94 in 10.0 mi South 10.4 mph - N/A   Partly Cloudy
11:56 PM 56.5 °F 49.1 °F 76% 29.94 in - South 10.4 mph - N/A   Clear